Location: ???? ?????????
(31.1304°N, 31.7111°E)
Time: 18:33:22
(UTC+00:00)

Cosmos 1553 Rocket - Pass Details

Date: 29 October 2020
Orbit: 940 x 1009 km, 82.9° (Epoch: 30 November)

Event Time Altitude Azimuth Distance (km) Brightness Sun altitude
Rises 15:51:46 0° 182° (S) 3,718 7.2 -10.2°
Reaches altitude 10° 15:54:17 10° 182° (S) 2,766 6.5 -10.7°
Maximum altitude 16:00:40 85° 94° (E) 1,002 4.0 -12.1°
Drops below altitude 10° 16:06:58 10° 7° (N) 2,742 6.2 -13.4°
Sets 16:09:28 0° 7° (N) 3,683 6.9 -13.9°
